Regional Weather Roundup
Issued by NWS Grand Forks, ND

Home | Current Version | Previous Version | Graphics & Text | Print | Product List | Glossary On
Versions: 1 2 3 4 5 6 7 8 9 10 11 12 13 14 15 16 17 18 19 20 21 22 23 24 25 26 27 28 29 30 31 32 33 34 35 36 37 38 39 40 41 42 43 44 45 46 47 48 49 50
518
ASUS43 KFGF 240410
RWRFGF
PRAIRIE TO PINES  WEATHER ROUNDUP
NATIONAL WEATHER SERVICE EASTERN NORTH DAKOTA/GRAND FORKS ND
1100 PM CDT TUE MAY 23 2017

 **SATELLITE DATA USED TO AUGMENT SKY COVER AT AUTOMATED STATIONS**
 *****  WEATHER ACROSS EASTERN NORTH DAKOTA  *****

CITY           SKY/WX    TMP DP  RH WIND       PRES   REMARKS
GRAND FORKS    FAIR      46  42  86 SW6       29.94F
GRAND FRKS AFB FAIR      44  41  91 CALM      29.94F
DEVILS LAKE    FAIR      49  41  74 SW3       29.95F
FARGO          FAIR      50  43  77 N7        29.93F
WAHPETON ARPT  FAIR      46  41  81 N3        29.92F
$$

 ***** WEATHER ACROSS CENTRAL AND WESTERN NORTH DAKOTA  *****

CITY           SKY/WX    TMP DP  RH WIND       PRES   REMARKS
BISMARCK       FAIR      48  37  65 SE3       29.97F
MINOT          FAIR      54  36  50 SE3       29.92F
JAMESTOWN      FAIR      44  39  82 N3        29.95F
MINOT AFB      CLEAR     55  37  49 S7        29.91F
GARRISON         N/A     50  36  58 SE5       29.94F
WILLISTON      FAIR      61  37  41 SE10      29.89F
DICKINSON      FAIR      46  32  58 SE8       29.93F
HETTINGER      FAIR      47  33  58 E7        29.97F
$$

 *****  OTHER AIRPORT OBSERVATIONS IN OUR AREA  *****

CITY           SKY/WX    TMP DP  RH WIND       PRES   REMARKS
WALHALLA       NOT AVBL
GRAFTON AIRPOR FAIR      48  43  81 SW7       29.95F
VALLEY CITY AR FAIR      45  46 100 N5        29.96F
CANDO          NOT AVBL
CAVALIER APRT  FAIR      52  41  66 S5        29.93S
GWINNER        CLOUDY    50  45  81 MISG      29.93F
SHEYENNE NWR     N/A     50  45  82 CALM      29.95S
ROLLA          FAIR      46  28  49 CALM      29.95S
 ***** THE ABOVE OBSERVATIONS ARE NON NWS ARE NOT QUALITY
       CONTROLLED AND MAY MIS-REPORT RAIN FOR SNOW...
$$

  *****  WEATHER ACROSS NORTHERN MINNESOTA  *****

CITY           SKY/WX    TMP DP  RH WIND       PRES   REMARKS
FLAG ISLAND    FAIR      54  43  66 SW3       29.92S
WARROAD        FAIR      45  43  93 CALM      29.94S
ROSEAU         FAIR      48  41  76 CALM      29.93F
HALLOCK        FAIR      48  39  71 S5        29.93F
THF RVR FALLS  FAIR      46  43  89 CALM      29.95F
BAUDETTE       FAIR      43  41  93 CALM      29.93F
WASKISH        FAIR      43  39  87 CALM      29.93F
CROOKSTON      FAIR      46  43  87 CALM      29.95F
STEPHEN NDAWN    N/A     48  39  71 S3          N/A
GREENBUSH NDAW   N/A     46  43  87 S2          N/A
$$
  *****  WEATHER ACROSS CENTRAL AND WEST MINNESOTA  *****

CITY           SKY/WX    TMP DP  RH WIND       PRES   REMARKS
FOSSTON        FAIR      41  39  93 CALM      29.95S
BEMIDJI        FAIR      38  38  99 NW3       29.93S
PARK RAPIDS    CLOUDY    52  41  66 N8        29.91S
ELBOW LAKE     FAIR      47  44  90 N5        29.91S
WADENA         CLOUDY    48  45  87 N3        29.90S
DETROIT LAKES  CLOUDY    50  43  76 NE7       29.93S
MOORHEAD       FAIR      48  43  81 NE7       29.94S
FERGUS FALLS   FAIR      46  43  87 N3        29.91S
MORRIS MN      FAIR      48  46  93 N7        29.89S
STAPLES        CLOUDY    48  43  81 N7        29.90S
$$
  *****  WEATHER ELSEWHERE ACROSS MINNESOTA  *****

CITY           SKY/WX    TMP DP  RH WIND       PRES   REMARKS
DULUTH         CLOUDY    48  45  89 NE6       29.88F
INTRNTL FALLS  FAIR      38  37  97 CALM      29.92F
ELY            CLOUDY    48  39  71 CALM      29.90S
CLOQUET        CLOUDY    48  43  81 CALM      29.89S
WHEATON        FAIR      46  43  87 NW3       29.93S
BRAINERD       CLOUDY    50  48  93 N5        29.90R
HIBBING        CLOUDY    49  43  80 N3        29.89F
ALEXANDRIA     FAIR      48  46  93 N6        29.90S
SAINT CLOUD    CLOUDY    53  46  77 N6        29.87R
MINNEAPOLIS    MOCLDY    55  44  66 NE10      29.82S
$$

  *****  WEATHER ACROSS SOUTH DAKOTA  *****

CITY           SKY/WX    TMP DP  RH WIND       PRES   REMARKS
SIOUX FALLS    CLOUDY    51  47  86 N10       29.88S
BROOKINGS      LGT RAIN  49  45  86 N10       29.90S
WATERTOWN      FAIR      42  40  92 N7        29.91R
HURON          FAIR      42  41  96 NW6       29.94S
SISSETON         N/A     45  43  93 N9        29.91F
ABERDEEN       FAIR      45  40  82 N6        29.94F
MITCHELL       FAIR      48  44  86 NW10      29.94R
PIERRE         FAIR      45  37  73 N6        29.97S
MOBRIDGE       FAIR      46  37  71 E5        29.96S
RAPID CITY     FAIR      44  35  70 SE3       30.01R
$$

  *****  SOME WEATHER IN NEARBY STATES *****

CITY           SKY/WX    TMP DP  RH WIND       PRES   REMARKS
GLASGOW MT     FAIR      59  33  37 SE13      29.77F
GREAT FALLS MT FAIR      65  45  48 SW12      29.69F
CHEYENNE WY    FAIR      46  32  58 NW5       30.11S
SCOTTSBLUFF NE FAIR      47  38  71 CALM      30.04S
OMAHA NE       FAIR      50  45  83 NW10      29.83S
DES MOINES IA  FAIR      51  48  89 NW6       29.75S
DAVENPORT IA   FAIR      53  50  89 NW5       29.69F
CHICAGO IL     LGT RAIN  56  53  90 E6        29.67F
EAU CLAIRE WI  CLOUDY    53  44  71 N5        29.78S
LA CROSSE WI   LGT RAIN  53  50  89 N6        29.75R
$$

  *****  SOME NATIONAL WEATHER *****

CITY           SKY/WX    TMP DP  RH WIND       PRES   REMARKS
LA GUARDIA NY  CLOUDY    62  48  60 E3        29.78F
RALEIGH NC     CLOUDY    67  65  93 E3        29.67S
ATLANTA GA     CLOUDY    66  60  81 CALM      29.71F
NEW ORLEANS LA MOCLDY    74  69  85 NW5       29.75R
OKLAHOMA CITY  FAIR      58  45  62 N8        29.90R
ALBUQUERQUE NM FAIR      69  19  15 N5        30.08R
SALT LAKE CITY FAIR      69  42  37 E8        30.00F
LOS ANGELES CA CLOUDY    59  57  93 SW6       29.91R
BOISE ID       FAIR      73  42  32 SE10      29.84F
SEATTLE WA     MOCLDY    58  48  69 W6        29.98R
$$

*** WEATHER ACROSS MANITOBA...SASKATCHEWAN AND ONTARIO ***
                ***ONTARIO***

CITY           SKY/WX    TMP DP  RH WIND       PRES   REMARKS
GERALDTON      MOCLDY    46  37  71 N6        29.93S
THUNDER BAY    CLOUDY    48  43  81 VRB2      29.89F
SIOUX LOOKOUT  CLEAR     39  37  93 NE2       29.93S
TORONTO        MOCLDY    57  50  77 S3        29.74F
BIG TROUT LK   CLEAR     45  27  49 SE5       29.95F
PICKLE LAKE    NOT AVBL
DRYDEN         CLEAR     52  39  62 CALM      29.93S
KENORA         CLEAR     54  36  50 S5        29.92F
$$
                *** MANITOBA***

CITY           SKY/WX    TMP DP  RH WIND       PRES   REMARKS
BRANDON        MOCLDY    55  34  44 S6        29.90F
DAUPHIN        PTCLDY    57  36  44 S8        29.83F
ISLAND LAKE    PTCLDY    52  28  40 SE7       29.85F
PILOT MOUND      N/A     52  34  50 SE6         N/A
THE PAS        CLOUDY    57  45  62 SE9       29.69F
THOMPSON       MOCLDY    59  36  41 S9G20     29.70F
WINNIPEG       MOCLDY    54  37  54 N2        29.92F
LYNN LAKE      CLOUDY    61  39  44 S13       29.55F
CHURCHILL      CLOUDY    46  36  66 S14       29.68F
GILLAM         CLOUDY    59  36  41 S9        29.76F
$$
                ***SASKATCHEWAN***

CITY           SKY/WX    TMP DP  RH WIND       PRES   REMARKS
ESTEVAN        CLOUDY    57  37  47 SE13      29.86F
KINDERSLEY     MOCLDY    70  39  32 SE23      29.48F
LLOYDMINSTER   PTCLDY    70  43  37 S14       29.39F
PRINCE ALBERT  PTCLDY    64  36  34 S10       29.57F
REGINA         PTCLDY    55  30  38 S13       29.76F
YORKTON          N/A     64  32  29 S15G21    29.78F
N. BATTLEFORD  CLEAR     70  37  30 SE17G25   29.49F
LA RONGE       MOCLDY    64  37  36 SE8       29.51F
SASKATOON      PTCLDY    66  32  28 S18G26    29.59F
SWIFT CURRENT  CLOUDY    61  30  31 S22G29    29.63F
$$
NOTE: THESE ARE AUTOMATED STATIONS WITH LIMITED QUALITY CONTROL
      "FAIR" INDICATES FEW OR NO CLOUDS BELOW 12,000 FEET WITH NO
      SIGNIFICANT WEATHER AND/OR OBSTRUCTIONS TO VISIBILITY.
      SKY/WX - SKY CONDITION AND SIGNIFICANT WEATHER.
      TMP - AIR TEMPERATURE.    DP   - DEWPOINT TEMPERATURE.
      RH  - RELATIVE HUMIDITY.  PRES - PRESSURE.
      HX  - HEAT INDEX.         WCI  - WIND CHILL INDEX.
$




USA.gov is the U.S. government's official web portal to all federal, state and local government web resources and services.